Location: Seasalter
(51.3333°N, 1.0167°E)
Time: 19:41:08
(UTC+00:00)

IDEFIX/ARIANE 42P - Pass Details

Date: 26 September 2023
Orbit: 782 x 801 km, 98.5° (Epoch: 10 December)

Event Time Altitude Azimuth Distance (km) Brightness Sun altitude
Rises 02:47:53 0° 10° (N) 3,325 6.5 -27.1°
Reaches altitude 10° 02:50:19 10° 4° (N) 2,391 5.5 -26.8°
Enters shadow 02:54:34 40° 316° (NW) 1,172 3.3 -26.3°
